Temp
60 60 60 59 59 59 59 59 59 60 60 60 60 60 61 60 59 55 52 63 64 70 70 70 71 72 71 68 71 70 50 50 56 61 65 73 70 79 83 78 80 85 85 88 89
59 59 59 59 59 59 59 59 59 59 60 60 60 60 60 60 51 50 63 71 71 71 66 67 66 68 62 65 65 60 49 54 65 69 67 72 73 75 76 76 77 80 86 88 88
58 59 59 59 59 58 58 58 58 59 59 60 60 60 60 59 50 60 71 71 71 70 66 66 67 64 58 61 62 60 56 63 67 70 72 71 72 77 73 70 76 75 81 86 86
58 59 59 58 58 58 58 58 58 59 59 59 59 59 60 55 47 67 73 72 71 69 67 64 60 53 54 55 62 56 64 66 67 71 70 69 74 72 74 74 81 83 83 81 80
58 58 58 58 58 58 58 58 58 58 58 58 59 59 55 51 55 74 74 72 70 68 64 62 55 53 52 57 58 57 62 66 69 70 70 72 70 72 73 80 84 85 84 79 78
58 58 57 57 57 57 57 57 57 57 57 58 60 60 52 49 71 76 72 70 71 65 66 61 59 61 55 55 53 58 60 62 65 66 68 68 70 72 75 81 81 83 82 81 80
58 57 57 57 57 57 57 57 56 56 58 60 61 61 52 55 71 71 70 66 71 71 68 69 67 62 57 54 59 61 53 59 62 63 63 69 64 66 75 78 78 80 82 83 81
57 57 57 57 57 57 57 57 56 57 59 60 62 56 49 70 68 69 70 73 76 74 71 72 70 61 54 56 57 54 49 42 57 63 65 64 55 69 74 73 73 76 80 82 80
57 56 56 57 57 57 56 56 57 59 60 61 54 51 52 72 71 74 69 70 73 74 72 79 65 57 56 47 42 44 40 46 52 62 62 60 56 65 70 71 72 74 75 79 81
57 56 56 56 56 56 55 55 57 58 61 65 65 51 60 65 72 74 74 74 69 67 65 61 55 50 45 42 34 41 42 46 48 57 57 55 55 61 65 65 64 67 71 75 79
57 56 56 56 56 55 52 51 54 53 55 54 58 60 65 73 75 71 75 71 67 60 49 55 46 41 47 49 52 50 48 46 52 59 55 53 54 59 62 62 62 64 66 69 72
56 56 56 56 55 54 48 51 59 60 49 63 63 64 70 72 63 69 74 61 57 49 53 48 42 52 57 56 53 51 45 45 51 57 55 52 53 60 62 60 61 63 65 65 69
55 55 56 55 54 51 52 60 65 63 46 58 65 64 65 68 62 63 69 63 54 49 49 42 50 59 56 52 50 47 44 45 45 52 53 50 48 52 59 60 63 64 64 64 65
55 55 55 55 54 51 56 66 63 61 40 53 60 65 68 64 59 72 72 64 54 49 50 48 55 55 52 51 51 41 52 51 48 43 34 49 34 47 53 54 58 61 60 61 65
55 55 55 54 47 52 62 61 60 57 27 58 60 71 66 60 62 65 72 62 53 53 51 47 50 49 48 49 52 46 52 47 47 42 36 42 34 43 51 51 55 60 63 65 68
54 55 54 51 47 54 61 60 58 39 31 54 62 59 55 60 62 64 63 63 62 52 52 52 58 53 50 54 53 53 46 44 41 36 27 38 37 41 45 50 55 60 63 65 63
54 54 52 56 54 59 58 54 37 31 57 51 52 56 53 53 57 59 57 51 44 39 39 47 48 52 55 46 49 45 35 23 23 24 26 41 37 41 50 55 57 54 53 55 57
53 52 52 58 56 57 53 44 33 49 49 57 54 54 49 54 54 55 52 45 51 46 37 33 33 46 54 46 41 40 37 25 23 23 29 42 31 40 52 56 53 54 54 56 56
51 50 53 58 61 55 47 33 34 47 54 51 52 46 46 52 50 49 46 46 49 48 35 33 35 51 53 53 47 40 33 40 30 34 27 34 41 48 51 50 52 52 54 53 55
44 46 52 62 60 51 41 39 45 57 57 54 42 48 40 44 44 44 46 52 50 52 47 41 31 47 51 51 49 43 46 30 28 22 21 30 35 36 42 44 48 49 48 51 56
45 47 57 61 56 45 33 40 51 60 58 51 46 44 45 42 43 43 46 52 53 50 48 39 35 38 43 40 37 37 35 34 32 29 20 25 29 42 42 44 44 47 50 50 52
42 42 58 58 42 39 38 48 52 56 58 54 51 48 43 45 42 43 43 48 54 51 40 41 34 29 36 47 49 45 38 35 25 25 31 31 30 51 46 46 47 48 50 50 52
40 42 56 55 35 35 44 50 53 53 53 52 49 50 49 43 38 44 47 55 54 49 43 42 32 27 32 37 42 41 41 40 37 35 29 28 30 50 47 48 48 46 48 49 51
41 38 43 45 44 39 39 43 47 56 54 53 49 49 44 41 44 41 44 53 54 51 55 47 34 31 26 33 36 35 40 43 38 30 33 34 38 44 45 47 47 48 51 51 50
41 37 40 33 37 38 38 43 44 45 51 50 46 45 41 35 38 40 43 47 49 52 47 40 33 35 38 41 42 41 41 43 40 40 33 38 37 41 44 46 46 50 52 53 54
36 36 38 35 39 39 40 39 43 45 45 43 41 46 42 35 39 37 42 40 39 45 41 38 31 35 35 42 42 40 42 44 45 42 40 37 37 43 47 50 49 52 54 53 56
41 42 38 36 36 35 35 39 41 44 47 49 44 41 40 43 47 48 48 46 45 42 39 36 33 30 30 39 38 31 38 40 41 43 39 34 38 44 44 46 47 49 52 53 54
MSLP
1020.47 1020.10 1019.70 1019.28 1018.87 1018.49 1018.18 1017.82 1017.43 1017.06 1016.71 1016.43 1016.17 1015.92 1015.46 1015.14 1014.62 1014.12 1013.26 1011.36 1011.17 1010.85 1010.98 1010.67 1010.38 1010.06 1010.11 1009.87 1009.63 1009.40 1009.98 1009.75 1008.93 1008.11 1006.21 1005.12 1005.13 1003.92 1003.74 1003.07 1002.76 1001.69 1000.81 1000.28 1000.27
1020.42 1019.98 1019.52 1019.09 1018.69 1018.29 1017.93 1017.55 1017.13 1016.78 1016.46 1016.22 1015.92 1015.60 1015.25 1014.97 1014.62 1013.59 1011.18 1010.56 1010.60 1010.72 1010.96 1010.72 1010.28 1010.16 1010.17 1009.70 1009.78 1009.59 1009.42 1008.89 1008.05 1007.40 1006.64 1005.62 1005.12 1004.35 1004.15 1003.26 1002.55 1002.56 1001.16 1001.11 1000.15
1020.37 1019.87 1019.37 1018.92 1018.49 1018.09 1017.67 1017.22 1016.82 1016.49 1016.17 1015.96 1015.73 1015.35 1014.97 1014.79 1014.32 1011.37 1010.21 1010.29 1010.46 1010.62 1010.72 1010.55 1010.28 1010.34 1010.15 1009.74 1009.59 1008.94 1008.38 1008.20 1007.68 1007.30 1006.90 1005.91 1004.62 1004.59 1004.41 1003.48 1002.82 1002.97 1002.11 1001.60 1001.52
1020.27 1019.72 1019.19 1018.70 1018.26 1017.83 1017.39 1016.96 1016.59 1016.15 1015.85 1015.70 1015.44 1015.10 1014.68 1014.69 1013.11 1010.23 1009.77 1009.90 1010.34 1010.75 1010.83 1010.60 1010.49 1010.26 1009.96 1009.77 1009.35 1009.01 1008.37 1008.00 1007.56 1007.02 1006.84 1006.12 1005.22 1004.60 1004.45 1003.23 1002.66 1002.75 1002.46 1002.30 1001.78
1020.10 1019.58 1019.04 1018.51 1017.96 1017.45 1017.03 1016.68 1016.37 1016.01 1015.65 1015.43 1015.17 1014.90 1014.56 1013.94 1011.66 1009.26 1009.35 1009.82 1010.24 1010.43 1010.42 1010.44 1010.41 1010.25 1010.13 1009.61 1009.21 1008.89 1008.34 1007.73 1007.17 1006.78 1006.40 1006.25 1005.25 1004.33 1003.17 1002.72 1002.28 1001.58 1002.27 1002.05 1002.16
1019.92 1019.36 1018.80 1018.28 1017.72 1017.12 1016.59 1016.25 1015.99 1015.73 1015.51 1015.17 1014.79 1014.67 1014.47 1012.61 1009.29 1008.82 1009.16 1009.91 1009.89 1010.02 1009.69 1009.85 1009.69 1009.41 1009.58 1009.61 1009.57 1008.80 1008.53 1007.99 1007.24 1006.69 1006.22 1006.02 1005.09 1004.63 1002.24 1002.48 1002.37 1001.46 1001.30 1001.32 1001.43
1019.70 1019.16 1018.61 1017.97 1017.31 1016.72 1016.15 1015.65 1015.37 1015.26 1015.10 1014.85 1014.51 1014.32 1013.72 1010.93 1008.96 1009.13 1009.44 1009.23 1009.02 1009.19 1009.13 1008.92 1009.04 1009.36 1009.72 1009.75 1009.34 1009.31 1008.86 1008.12 1007.24 1006.76 1006.27 1005.93 1004.64 1003.26 1003.02 1002.62 1002.17 1001.62 1000.66 1000.57 1001.06
1019.56 1018.93 1018.31 1017.62 1016.94 1016.30 1015.62 1015.06 1014.68 1014.53 1014.47 1014.39 1014.21 1014.13 1012.48 1009.48 1008.96 1008.96 1008.77 1008.47 1008.23 1008.37 1008.56 1008.43 1008.68 1009.32 1009.85 1009.93 1009.82 1009.71 1009.43 1008.89 1007.54 1006.86 1006.17 1005.96 1003.31 1003.24 1003.29 1003.13 1002.30 1001.91 1001.31 1000.88 1000.55
1019.16 1018.53 1017.94 1017.29 1016.59 1015.85 1015.15 1014.40 1013.83 1013.62 1013.59 1013.87 1014.04 1013.66 1011.34 1009.20 1008.96 1008.54 1008.43 1008.62 1008.28 1008.16 1008.19 1008.20 1008.79 1009.49 1009.88 1010.49 1010.84 1010.13 1009.83 1009.00 1008.13 1006.93 1006.31 1005.83 1004.07 1004.38 1003.92 1003.53 1002.82 1002.10 1001.63 1000.99 1000.08
1018.92 1018.19 1017.49 1016.85 1016.21 1015.52 1014.68 1013.63 1013.00 1013.14 1013.09 1013.26 1013.07 1013.11 1010.60 1009.12 1008.50 1008.20 1008.13 1008.30 1008.39 1008.46 1008.52 1008.53 1009.34 1010.07 1010.63 1011.26 1011.25 1010.52 1009.94 1009.28 1008.33 1007.44 1006.75 1005.95 1004.82 1004.98 1004.62 1004.07 1003.60 1003.01 1002.36 1001.44 1000.44
1018.79 1017.95 1017.19 1016.42 1015.83 1015.37 1014.63 1013.55 1013.26 1013.09 1012.65 1012.18 1011.73 1011.02 1009.77 1008.75 1008.19 1008.12 1008.08 1008.14 1008.45 1008.90 1009.35 1009.13 1009.91 1010.50 1010.52 1010.58 1010.31 1010.12 1009.63 1009.23 1008.51 1007.69 1007.01 1006.53 1005.32 1004.80 1004.63 1004.27 1004.01 1003.44 1002.96 1002.25 1001.66
1018.56 1017.67 1016.82 1016.04 1015.36 1015.09 1015.11 1014.29 1012.57 1012.22 1011.86 1010.91 1010.35 1010.24 1009.41 1008.89 1008.49 1008.13 1007.91 1008.50 1008.89 1009.52 1009.70 1010.07 1010.11 1009.84 1009.75 1009.66 1009.71 1009.64 1009.53 1009.20 1008.34 1007.78 1007.50 1006.85 1005.14 1004.45 1004.61 1004.37 1004.04 1003.56 1003.03 1002.43 1001.60
1018.24 1017.38 1016.52 1015.57 1014.76 1014.67 1014.42 1013.11 1012.05 1011.61 1012.09 1010.34 1009.33 1008.95 1008.53 1008.44 1008.39 1008.13 1008.14 1008.34 1008.98 1009.63 1010.08 1010.48 1009.91 1009.35 1009.34 1009.34 1009.45 1009.66 1009.90 1009.92 1009.73 1008.84 1008.35 1007.80 1005.32 1005.12 1004.61 1004.15 1003.65 1003.32 1002.92 1002.36 1001.93
1017.91 1017.10 1016.44 1015.30 1014.72 1014.72 1013.61 1012.13 1011.67 1011.66 1012.02 1010.11 1008.70 1007.87 1007.88 1008.00 1008.12 1007.57 1007.77 1008.41 1009.01 1009.63 1010.06 1010.14 1009.19 1009.32 1009.35 1009.32 1009.51 1010.05 1010.18 1010.39 1010.34 1010.24 1009.90 1009.17 1006.87 1005.57 1004.87 1004.19 1003.93 1003.47 1003.06 1002.70 1001.84
1017.57 1016.74 1016.12 1015.82 1015.19 1014.44 1012.88 1012.03 1011.58 1012.06 1011.35 1009.47 1008.38 1007.30 1007.68 1008.22 1007.76 1007.45 1007.36 1008.00 1008.81 1009.25 1010.13 1009.80 1009.36 1009.31 1009.48 1009.67 1009.82 1010.36 1010.54 1011.07 1010.96 1010.76 1010.56 1009.63 1008.97 1005.55 1005.39 1004.15 1003.58 1003.22 1002.96 1002.25 1001.73
1017.05 1016.34 1015.94 1015.54 1015.19 1013.38 1012.45 1012.01 1011.88 1012.60 1010.73 1009.11 1008.59 1008.38 1008.43 1008.22 1007.87 1007.49 1007.58 1007.81 1007.95 1009.04 1009.55 1009.51 1008.93 1009.23 1009.50 1009.64 1009.86 1010.53 1011.09 1011.42 1011.54 1011.30 1010.87 1009.84 1009.06 1004.81 1005.73 1004.61 1003.66 1003.26 1002.80 1002.35 1001.94
1016.41 1015.45 1015.43 1015.07 1014.00 1012.78 1012.49 1012.42 1012.90 1012.19 1010.47 1010.26 1009.77 1009.33 1009.00 1008.66 1008.06 1007.99 1008.10 1008.32 1009.14 1009.66 1010.06 1009.92 1009.70 1009.86 1009.89 1010.08 1010.21 1010.86 1012.01 1012.84 1012.89 1012.50 1011.16 1009.83 1008.90 1006.47 1005.15 1004.60 1004.29 1004.08 1003.80 1003.40 1002.77
1015.84 1014.76 1014.44 1013.92 1013.17 1013.11 1013.28 1013.30 1013.07 1012.26 1011.48 1010.84 1010.59 1009.92 1009.92 1009.69 1009.20 1009.14 1009.02 1009.52 1010.14 1010.62 1010.96 1011.21 1010.82 1010.39 1010.23 1010.59 1010.83 1011.32 1012.27 1013.39 1013.45 1013.09 1011.71 1010.02 1008.32 1006.03 1005.10 1004.72 1004.51 1004.28 1003.94 1003.12 1002.41
1015.68 1014.75 1014.40 1013.12 1012.74 1013.26 1014.22 1014.08 1013.56 1012.32 1011.83 1011.33 1010.86 1010.74 1010.86 1010.89 1010.70 1010.34 1010.40 1010.42 1010.87 1011.12 1011.80 1012.00 1011.50 1010.73 1010.56 1010.46 1010.89 1011.13 1012.02 1012.35 1013.27 1012.93 1012.47 1010.11 1007.82 1006.00 1005.55 1005.12 1004.62 1004.02 1003.59 1002.97 1001.87
1016.75 1015.74 1014.26 1012.71 1012.81 1013.77 1014.71 1014.51 1013.26 1012.21 1011.59 1011.45 1011.56 1011.69 1011.93 1011.65 1011.63 1011.50 1011.08 1010.77 1011.05 1011.49 1011.86 1012.35 1011.93 1011.03 1010.59 1010.51 1010.39 1010.75 1011.46 1012.57 1013.38 1013.16 1012.00 1009.78 1008.21 1006.60 1005.87 1005.21 1004.90 1003.96 1003.38 1002.38 1001.26
1016.61 1015.87 1013.39 1012.87 1013.27 1014.74 1015.47 1014.62 1013.19 1012.04 1011.39 1011.50 1011.76 1012.02 1012.21 1012.37 1012.33 1012.09 1011.52 1011.06 1011.06 1011.47 1011.88 1012.66 1012.86 1012.07 1011.62 1010.90 1010.79 1011.37 1011.81 1012.57 1013.21 1012.96 1011.99 1009.93 1008.19 1006.26 1005.56 1004.86 1004.89 1004.15 1003.27 1002.32 1001.01
1017.45 1016.28 1013.63 1013.41 1014.68 1015.54 1015.54 1014.56 1013.49 1012.20 1011.45 1011.42 1011.71 1012.06 1012.36 1012.50 1012.46 1012.24 1011.64 1011.27 1011.07 1011.47 1012.15 1012.74 1013.19 1013.03 1011.91 1010.48 1010.77 1011.16 1011.56 1012.18 1012.94 1012.50 1011.66 1010.56 1006.93 1005.36 1005.23 1004.76 1004.40 1003.82 1003.43 1002.22 1001.39
1018.94 1017.00 1014.22 1014.20 1015.99 1016.43 1015.61 1014.59 1013.47 1012.52 1011.91 1011.56 1011.83 1012.01 1012.18 1012.54 1012.69 1012.12 1011.67 1011.04 1011.02 1011.37 1011.93 1012.60 1013.37 1013.51 1012.11 1011.17 1010.74 1010.97 1011.24 1011.34 1011.72 1011.56 1010.92 1009.99 1006.43 1005.34 1005.14 1004.51 1004.46 1004.07 1003.28 1002.02 1001.24
1019.39 1018.35 1016.81 1016.38 1016.75 1017.07 1016.75 1015.18 1013.87 1012.60 1012.37 1012.26 1012.54 1012.43 1012.83 1012.79 1012.63 1012.42 1012.00 1011.33 1011.26 1011.25 1011.41 1012.22 1012.97 1013.33 1012.95 1011.85 1011.45 1010.92 1010.44 1010.40 1010.56 1010.36 1009.35 1008.12 1006.13 1005.55 1004.79 1004.03 1003.98 1003.74 1002.48 1001.48 1000.36
1019.89 1020.13 1019.52 1018.68 1018.07 1017.86 1017.31 1016.07 1015.01 1013.89 1013.10 1012.90 1012.88 1013.13 1013.46 1013.35 1013.00 1012.53 1012.12 1011.68 1011.39 1011.19 1011.61 1012.13 1012.79 1012.75 1012.25 1011.56 1010.98 1009.91 1009.29 1008.97 1008.71 1008.42 1008.42 1007.18 1006.65 1005.97 1004.87 1003.87 1003.35 1003.33 1002.07 1001.13 1000.14
1021.06 1021.06 1020.37 1019.80 1018.91 1018.34 1017.31 1016.46 1015.80 1014.84 1014.43 1013.56 1013.45 1013.32 1013.36 1013.55 1013.38 1012.65 1012.29 1012.01 1011.65 1011.39 1011.82 1012.32 1012.32 1012.15 1011.23 1011.04 1010.23 1009.26 1008.43 1007.65 1007.36 1007.62 1007.52 1007.12 1006.63 1005.85 1004.86 1003.94 1003.45 1003.17 1002.07 1001.32 1000.43
1021.41 1021.22 1021.21 1020.30 1019.51 1018.79 1017.85 1017.41 1016.56 1015.93 1014.53 1014.01 1013.96 1013.78 1013.37 1013.23 1012.88 1011.97 1011.39 1011.00 1010.75 1010.97 1011.48 1012.07 1012.17 1012.20 1010.56 1010.70 1010.10 1008.86 1008.03 1007.90 1007.70 1007.45 1007.47 1006.87 1006.37 1006.02 1005.06 1004.23 1003.13 1002.92 1002.07 1001.89 1001.55
Wind_Speed
16 16 16 15 15 15 15 15 15 15 15 15 15 15 15 15 16 4 6 10 8 7 3 6 4 4 2 3 4 1 2 8 7 11 10 14 7 14 10 9 8 6 3 7 9
16 16 16 17 17 16 16 16 16 16 15 15 15 15 14 14 4 7 13 10 9 3 2 3 4 2 3 5 4 5 6 8 6 10 9 14 18 18 17 21 14 9 9 10 16
18 17 17 17 18 17 17 17 16 16 16 15 15 15 14 9 3 6 10 14 9 5 3 2 4 2 4 4 5 5 11 6 7 6 8 16 22 17 15 18 15 3 8 6 6
20 20 19 19 19 18 18 18 17 17 17 16 15 15 15 1 2 5 12 13 8 5 2 2 3 2 3 5 5 8 10 7 9 13 13 19 20 20 17 21 19 11 7 3 0
21 21 21 21 20 20 19 18 18 17 17 16 14 11 4 1 8 8 14 10 5 4 5 4 2 3 3 4 4 8 10 10 11 13 13 14 21 22 26 21 19 20 9 4 5
21 22 22 22 22 21 19 18 17 16 15 14 12 7 2 3 5 8 10 4 8 5 5 6 3 4 1 2 1 5 5 10 7 10 8 14 19 16 28 19 17 20 15 7 6
20 20 22 24 24 23 20 18 17 16 15 12 6 3 2 12 3 2 7 6 5 8 3 5 3 4 3 8 3 6 7 8 5 3 5 6 18 22 15 11 16 17 18 13 9
20 21 22 23 23 23 23 21 20 18 15 11 3 2 7 7 5 4 3 7 4 6 4 7 6 4 3 2 8 5 1 1 4 6 5 7 24 18 12 13 20 15 16 19 11
22 21 22 24 24 23 23 22 22 17 11 7 2 2 9 10 3 3 1 3 4 5 6 7 6 4 2 2 5 3 4 4 5 6 6 7 17 6 9 11 17 18 14 13 16
23 23 23 23 24 23 23 22 14 7 3 6 4 2 6 2 3 3 3 4 3 6 6 0 4 2 3 4 4 6 6 4 3 3 2 9 15 6 7 8 8 9 13 16 18
25 25 24 23 22 19 11 5 6 4 2 6 5 4 11 3 1 3 3 1 4 5 2 3 3 4 9 9 11 7 7 6 4 5 4 9 16 13 6 6 9 11 12 13 14
26 26 26 24 21 16 1 1 3 5 7 9 12 12 16 9 1 6 0 3 2 4 5 8 3 3 5 6 5 7 5 7 4 9 10 9 21 18 10 6 8 11 13 10 12
25 26 27 26 26 2 3 6 6 6 3 8 6 5 7 7 7 9 4 4 3 1 5 2 9 9 7 7 6 5 4 6 7 12 5 7 20 12 12 7 8 8 9 9 10
25 26 26 27 3 4 4 6 0 5 4 5 3 4 3 2 4 7 7 6 1 5 4 7 7 4 6 4 3 2 6 9 11 8 3 4 16 14 14 11 8 9 8 10 13
25 25 24 15 3 3 5 8 2 6 4 7 4 2 2 4 2 4 7 3 7 7 5 12 5 8 4 1 1 5 3 4 6 8 2 5 6 8 14 19 18 15 14 16 15
27 26 21 1 2 8 8 7 6 6 2 1 3 4 1 5 7 4 6 2 5 5 4 12 5 3 2 1 1 2 4 6 5 1 5 6 7 21 9 13 13 13 17 15 16
30 27 11 3 4 5 7 5 6 5 7 7 6 6 6 5 6 1 5 4 2 3 4 6 2 3 3 2 4 6 5 4 5 3 6 1 6 14 12 15 18 8 10 11 14
31 24 3 4 6 6 4 5 7 7 8 6 6 9 2 12 7 8 6 2 6 2 3 1 6 4 5 2 5 4 7 6 5 4 11 16 9 9 8 10 1 2 5 9 12
23 5 3 5 5 3 6 5 2 5 7 6 6 3 5 9 6 8 7 5 4 4 2 2 4 5 9 8 1 3 3 7 3 8 5 9 13 11 3 6 10 9 9 11 13
3 4 4 4 3 6 6 2 2 2 4 3 3 4 5 8 7 6 5 2 2 5 2 3 7 7 4 4 2 5 4 2 1 3 6 4 9 9 7 11 10 11 9 11 13
3 4 5 4 5 6 3 4 5 10 6 2 2 6 4 2 3 5 3 10 3 2 6 3 2 5 3 3 3 4 2 2 1 3 4 6 7 7 11 9 9 13 13 14 13
3 3 4 5 5 1 1 3 6 7 1 2 1 3 1 4 4 4 6 4 4 3 2 2 1 4 8 18 12 10 6 5 4 6 3 5 10 10 6 6 9 11 16 15 11
4 3 4 7 3 4 6 5 3 7 4 5 5 5 5 4 3 4 6 5 5 5 6 4 2 4 9 5 6 1 4 4 3 3 6 8 9 3 7 10 6 10 11 11 14
2 5 6 5 1 2 5 5 5 7 4 4 4 6 5 3 3 5 8 5 4 6 11 8 5 8 9 10 5 12 18 18 12 6 12 13 23 14 11 11 5 10 10 12 13
4 2 1 5 4 6 2 4 10 5 6 4 5 2 3 4 5 6 4 6 7 9 5 7 7 6 12 17 16 22 21 19 19 17 10 14 8 6 9 14 6 9 5 18 11
3 3 5 4 5 5 3 2 5 9 5 7 3 7 4 4 8 14 11 4 7 7 7 3 6 4 15 15 15 16 19 12 7 8 12 11 11 3 11 9 8 11 13 16 14
3 4 4 5 5 3 3 4 9 9 8 7 6 6 6 7 13 12 12 10 12 12 10 7 5 1 18 5 11 11 3 1 3 9 7 7 2 8 12 13 14 13 17 13 13
Wind_Direction
346 343 340 336 334 331 327 324 322 321 321 322 326 327 329 326 319 317 254 225 189 235 296 277 273 248 259 233 235 75 159 225 223 239 260 300 310 302 318 345 332 311 224 229 137
345 342 340 337 332 329 325 322 321 320 320 323 326 326 325 329 308 246 246 248 218 212 264 258 241 13 243 197 239 180 186 222 230 238 289 299 298 303 321 318 314 348 5 360 125
342 340 338 335 331 327 323 320 319 318 319 325 327 324 321 331 318 251 216 220 212 194 246 300 285 229 203 227 224 226 237 246 262 275 275 283 285 302 311 299 294 309 317 18 55
342 340 338 335 330 326 322 320 319 319 319 324 324 318 315 137 119 243 207 215 204 188 227 247 248 202 220 228 228 256 264 255 257 259 262 274 289 284 283 273 283 291 264 269 125
342 339 337 335 331 326 321 319 317 315 316 320 319 316 351 301 251 245 208 212 203 184 201 198 241 213 212 237 299 256 274 266 264 260 251 257 265 275 282 278 289 289 275 228 288
340 338 336 333 329 325 321 316 311 309 310 313 312 309 187 290 232 208 199 179 212 188 254 162 233 251 200 318 318 306 315 287 266 277 283 267 265 267 269 278 281 288 286 240 227
337 335 333 330 327 323 319 313 308 304 303 306 306 260 287 237 228 292 151 219 209 202 209 267 153 68 23 332 329 285 305 313 286 265 262 283 278 256 271 300 279 275 291 289 218
333 329 327 328 327 322 318 313 303 296 290 289 261 243 248 258 264 250 207 336 15 204 199 245 201 162 165 269 335 324 262 359 317 352 275 174 259 270 282 288 283 287 274 272 276
332 328 327 328 326 323 318 306 297 292 268 237 181 177 271 310 210 238 153 271 311 300 291 267 114 195 1 68 352 319 252 266 300 241 247 213 276 326 316 283 275 276 272 277 281
330 327 327 326 327 327 319 300 288 299 184 180 246 313 278 278 172 251 252 230 256 297 313 271 91 148 25 81 245 259 266 249 227 301 5 294 292 278 294 299 302 316 316 296 276
330 327 327 325 328 329 335 355 12 3 86 220 222 254 297 284 42 298 290 171 355 40 352 304 82 237 247 218 241 263 280 289 277 238 301 281 282 287 282 298 302 300 296 296 300
330 326 327 326 324 323 211 320 229 207 306 251 241 252 262 255 285 295 336 122 2 307 357 9 289 228 285 307 315 321 319 320 293 315 312 287 282 288 287 261 273 280 285 275 294
330 328 331 326 321 69 202 244 297 83 7 300 221 213 230 163 218 242 160 176 184 323 324 209 259 299 310 313 352 5 22 342 317 326 330 303 289 299 297 286 285 278 270 288 278
330 328 333 328 351 348 266 292 126 88 63 269 195 244 163 175 263 221 198 153 182 216 271 259 260 276 302 275 51 360 335 344 329 337 282 16 287 298 303 295 291 298 307 290 294
329 327 331 319 274 332 280 326 41 60 55 180 174 203 227 178 283 209 182 125 196 217 128 250 272 283 290 55 68 219 359 332 286 278 258 230 271 278 309 295 292 292 289 291 288
327 325 333 128 232 242 306 298 56 45 26 90 70 8 320 219 255 207 188 157 206 199 219 238 268 114 129 323 84 58 11 352 319 224 244 214 214 279 266 273 279 295 290 307 328
328 322 317 275 248 312 324 41 50 72 324 7 5 335 321 305 282 306 198 241 30 336 356 343 4 103 117 355 339 77 55 341 335 336 238 6 299 271 272 275 292 324 334 320 318
328 319 222 218 264 332 31 56 69 350 26 30 345 313 6 13 1 352 357 41 47 58 90 91 324 16 3 231 257 232 170 163 268 270 299 298 251 259 297 310 281 335 293 304 317
325 333 317 264 246 74 63 50 153 9 4 352 344 348 353 10 351 16 15 65 44 35 98 307 264 307 285 291 355 264 160 208 211 248 255 262 267 280 317 345 326 313 319 312 312
328 337 277 288 80 58 70 280 294 345 327 18 40 35 342 335 16 25 316 138 93 66 127 311 289 236 286 323 295 161 210 315 316 262 256 261 280 256 311 298 284 308 294 294 299
40 25 262 49 61 47 107 250 303 327 319 157 254 267 267 349 338 328 280 317 113 41 73 45 166 276 337 254 201 325 288 83 168 170 238 310 257 216 236 247 295 304 291 283 292
354 47 294 54 45 67 237 277 310 319 307 56 66 45 320 292 265 270 253 238 102 142 119 213 214 284 263 276 258 243 207 154 129 284 262 264 269 252 237 285 265 298 292 297 305
345 276 331 82 53 334 309 303 256 320 300 219 218 221 250 240 289 269 299 283 215 166 187 177 257 311 317 353 11 180 197 220 232 192 219 261 268 322 258 254 282 282 295 312 299
14 2 330 30 69 42 353 286 313 318 296 39 4 5 9 304 210 232 282 270 291 234 190 166 192 196 238 260 249 277 274 273 259 236 274 251 281 294 290 288 267 290 322 304 304
28 338 220 309 323 329 230 271 307 325 9 27 329 345 309 310 314 252 306 306 321 278 177 145 220 230 245 263 276 276 281 281 263 261 237 291 267 324 320 295 246 267 326 297 314
60 21 345 288 297 314 320 296 315 333 331 300 271 287 275 232 221 275 276 248 229 280 204 199 254 237 271 276 264 286 295 287 293 321 295 303 285 343 324 339 295 303 298 300 318
318 330 96 284 314 319 224 355 307 318 291 340 338 318 299 302 308 273 257 240 235 237 237 215 226 238 271 341 321 295 202 54 274 237 250 270 264 324 309 306 303 312 306 333 349